[Iaude] MPEC G169: 2024 GD4 [a=2.50,e=0.49,i=30.4,H=20.3]
    mpec at cfa.harvard.edu 
    mpec at cfa.harvard.edu
       
    Fri Apr 12 02:38:17 EDT 2024
    
    
  
M.P.E.C. 2024-G169                               Issued 2024 April 12, 06:36 UT
     The Minor Planet Electronic Circulars contain information on unusual
         minor planets, routine data on comets and natural satellites,
         and occasional editorial announcements.  They are published
    on behalf of Division F of the International Astronomical Union by the
          Minor Planet Center, Smithsonian Astrophysical Observatory,
                          Cambridge, MA 02138, U.S.A.
			  
             Prepared using the Tamkin Foundation Computer Network
                              MPC at CFA.HARVARD.EDU
            URL https://www.minorplanetcenter.net/    ISSN 1523-6714
                                    2024 GD4                                    
Observations:
     K24G04D* C2024 04 07.36363913 35 29.130+28 48 25.82         21.86wXEG169F52
     K24G04D  C2024 04 07.37665713 35 27.306+28 48 17.10         21.89wXEG169F52
     K24G04D  C2024 04 07.38971213 35 25.456+28 48 08.85         21.29wXEG169F52
     K24G04D  C2024 04 07.51756813 35 07.428+28 46 42.85         21.23GVEG169F52
     K24G04D  C2024 04 07.51821813 35 07.349+28 46 42.93         21.66GVEG169F52
     K24G04D KC2024 04 08.18227213 33 37.16 +28 38 58.4          21.4 GVEG169H21
     K24G04D KC2024 04 08.19065713 33 35.96 +28 38 52.7          21.3 GVEG169H21
     K24G04D KC2024 04 08.19401113 33 35.48 +28 38 50.1          21.3 GVEG169H21
     K24G04D KC2024 04 12.24708713 23 56.80 +27 41 52.9          21.0 GXEG169858
     K24G04D KC2024 04 12.25327613 23 55.89 +27 41 47.2          21.2 GXEG169858
     K24G04D KC2024 04 12.25927513 23 55.00 +27 41 41.7          21.3 GXEG169858
Observer details:
858 Tebbutt Observatory, Edgewood.  Observer F. B. Zoltowski.  0.51-m f/8.1
    Schmidt-Cassegrain + CCD.
F52 Pan-STARRS 2, Haleakala.  Observers J. Herman, T. Lowe, P. Minguez, A.
    Schultz, I. Smith.  Measurers K. Chambers, T. de Boer, J. Fairlamb, H.
    Gao, M. Huber, C.-C. Lin, E. Magnier, Y. Ramanjooloo, R. Wainscoat, R.
    Weryk.  1.8-m Ritchey-Chretien + CCD.
H21 Astronomical Research Observatory, Westfield.  Observer R. Holmes.
    Measurers T. Linder, R. Holmes, L. Horn.  0.76-m f/3.0 astrograph + CCD.
Orbital elements:
2024 GD4                                                 Earth MOID = 0.3381 AU
Epoch 2024 Mar. 31.0 TT = JDT 2460400.5                 MPC                     
M 333.70048              (2000.0)            P               Q                  
n   0.24874769     Peri.  219.26568     -0.22477186     +0.91570205             
a   2.5039752      Node    41.09800     -0.71660429     +0.07630832             
e   0.4899532      Incl.   30.44821     -0.66026957     -0.39454631             
P   3.96           H   20.32          G   0.15           U   9                  
Residuals in seconds of arc
240407 F52  0.2-  0.3+    240407 F52  0.2+  0.2+    240412 858  0.4-  0.3-
240407 F52  0.2-  0.0     240408 H21  0.1+  0.0     240412 858  0.0   0.0
240407 F52  0.4-  0.2+    240408 H21  0.0   0.1+    240412 858  0.3+  0.3+
240407 F52  0.0   0.3-    240408 H21  0.1-  0.1-
Ephemeris:
2024 GD4                 a,e,i = 2.50, 0.49, 30                  q = 1.2771
Date    TT    R. A. (2000) Decl.     Delta      r    Elong.  Phase     V
2024 03 13    14 13 15.1 +29 36 54   0.9323  1.7704   133.6    24.0    22.5
...
2024 03 28    13 55 53.7 +29 55 22   0.7840  1.6809   140.9    22.0    22.0
...
2024 04 05    13 40 40.7 +29 11 49   0.7194  1.6343   143.2    21.5    21.7
...
2024 04 11    13 26 58.7 +28 01 22   0.6788  1.6001   143.6    21.8    21.6
2024 04 12    13 24 33.0 +27 45 55   0.6727  1.5945   143.6    21.9    21.5
2024 04 13    13 22 05.4 +27 29 21   0.6668  1.5889   143.5    22.1    21.5
...
2024 04 19    13 06 52.9 +25 25 31   0.6359  1.5558   142.1    23.4    21.4
...
2024 04 27    12 46 32.2 +21 34 26   0.6068  1.5132   138.1    26.4    21.3
...
2024 05 12    12 14 15.8 +11 31 15   0.5894  1.4395   126.2    34.5    21.4
A. U. Tomatic                (C) Copyright 2024 MPC           M.P.E.C. 2024-G169
    
    
More information about the Iaude
mailing list